Location: Unspecified
(41.1637°N, 24.2901°E)
Time: 17:53:36
(UTC+01:00)

ISS - Pass Details

Date: 21 January 2020
Orbit: 415 x 421 km, 51.6° (Epoch: 18 January)

Event Time Altitude Azimuth Distance (km) Brightness Sun altitude
Rises 17:34:25 0° 220° (SW) 2,352 1.0 -13.0°
Reaches altitude 10° 17:36:33 10° 214° (SW) 1,491 -0.2 -13.4°
Maximum altitude 17:39:47 48° 139° (SE) 556 -3.4 -14.0°
Enters shadow 17:41:08 29° 81° (E) 799 -2.9 -14.2°
